User: anonymous   Login
Location: Maiden_LMO
(35.5760°N, 81.2120°W)
Time: 15:52:05
(UTC-04:00)
Language:

Cosmos 2278 Rocket - Orbit

View from above orbital plane
View from above orbital plane
View from above satellite
View from above satellite

Ground track
Ground track

The orbit data is extracted from the following two-line orbital elements,

1 23088U 94023B   18173.57795091 -.00000214 +00000-0 -86423-4 0  9998
2 23088 070.9998 224.6569 0005808 264.3037 095.7424 14.14670845247650
Epoch (UTC): 22 June 2018 13:52:14
Eccentricity: 0.0005808
inclination: 70.9998°
perigee height: 839 km
apogee height: 847 km
right ascension of ascending node: 224.6569°
argument of perigee: 264.3037°
revolutions per day: 14.14670845
mean anomaly at epoch: 95.7424°
orbit number at epoch: 24765

The dashed part of the orbit path shows where the satellite is in the earth's shadow,  

DLR